Location: Unspecified
(35.6961°N, 0.0000°E)
Time: 23:20:10
(UTC+00:00)

S-56A Canister/Altair - Pass Details

Date: 27 May 2019
Orbit: 633 x 2499 km, 38.9° (Epoch: 19 June)

Event Time Altitude Azimuth Distance (km) Brightness Sun altitude
Rises 02:09:35 0° 272° (W) 3,383 - -25.0°
Reaches altitude 10° 02:11:44 10° 275° (W) 2,608 - -24.8°
Exits shadow 02:13:39 23° 280° (W) 1,975 9.4 -24.5°
Maximum altitude 02:17:58 70° 359° (N) 1,260 8.6 -24.0°
Drops below altitude 10° 02:27:37 10° 83° (E) 3,932 11.7 -22.8°
Sets 02:31:35 0° 86° (E) 5,221 12.4 -22.3°
